Flag for Jersey Weather past 2 weeks in Saint Helier, Jersey

50 °F

Passing clouds.

Feels Like: 46 °F
Forecast: 49 / 56 °F
Wind: 9 mph from South

Location: Jersey Airport

Current Time: Nov 27, 2015 at 7:08:44 AM

Latest Report: Nov 27, 2015 at 6:20 AM

Visibility: 6 mi

Pressure: 30.04 "Hg

Humidity: 100%

Dew point: 50 °F

Location of Saint HelierLocation

Historic Weather in Saint Helier — Graph


Saint Helier temperature yesterday

Maximum temperature yesterday: 55 °F (at 12:20 PM)
Minimum temperature yesterday: 50 °F (at 6:50 PM)
Average temperature yesterday: 52 °F

Past Weeks' High & Low Weather Summary

High61 °F (Nov 18, 1:20 PM)100% (Nov 12, 5:20 AM)30.45 "Hg (Nov 12, 5:20 AM)
Low39 °F (Nov 22, 7:20 AM)50% (Nov 21, 1:50 PM)29.71 "Hg (Nov 21, 3:50 AM)
Average52 °F84%30.07 "Hg
* Reported Nov 12 5:20 AM — Nov 27 5:50 AM, Saint Helier, Weather by CustomWeather, © 2015

Note: Actual official high and low records may vary slightly from our data, if they occured in-between our weather recording intervals... More about our weather records


Saint Helier weather history for previous 24 hours

Time TempWeatherWind HumidityBarometerVisibility
5:50 AM
Fri, Nov 27
52 °FPassing clouds.9 mph94%30.07 "Hg6 mi
5:20 AM50 °FPassing clouds.13 mph100%30.07 "Hg6 mi
4:50 AM50 °FPassing clouds.13 mph100%30.07 "HgN/A
3:50 AM50 °FPassing clouds.13 mph100%30.09 "Hg5 mi
10:50 PM
Thu, Nov 26
50 °FPassing clouds.6 mph94%30.18 "HgN/A
10:20 PM50 °FPassing clouds.6 mph94%30.18 "HgN/A
9:50 PM50 °FPassing clouds.3 mph88%30.18 "HgN/A
9:20 PM50 °FPassing clouds.3 mph88%30.18 "HgN/A
8:50 PM52 °FPassing clouds.3 mph88%30.18 "HgN/A
8:20 PM50 °FPassing clouds.3 mph88%30.21 "HgN/A
7:50 PM50 °FPassing clouds.2 mph88%30.18 "HgN/A
7:20 PM52 °FPassing clouds.No wind88%30.18 "HgN/A
6:50 PM50 °FPassing clouds.No wind94%30.18 "HgN/A
6:20 PM52 °FPassing clouds.3 mph88%30.18 "HgN/A
5:50 PM52 °FPassing clouds.5 mph88%30.18 "HgN/A
5:20 PM52 °FPassing clouds.5 mph88%30.18 "HgN/A
4:50 PM52 °FPassing clouds.7 mph82%30.18 "HgN/A
4:20 PM52 °FPassing clouds.8 mph82%30.18 "HgN/A
3:50 PM52 °FPartly sunny.6 mph82%30.18 "HgN/A
3:20 PM52 °FPartly sunny.10 mph82%30.18 "HgN/A
2:50 PM54 °FPartly sunny.8 mph77%30.15 "HgN/A
2:20 PM54 °FScattered clouds.8 mph77%30.15 "HgN/A
1:50 PM54 °FScattered clouds.10 mph72%30.15 "HgN/A
1:20 PM54 °FScattered clouds.8 mph72%30.15 "HgN/A
12:50 PM54 °FPassing clouds.13 mph72%30.15 "HgN/A
12:20 PM55 °FPassing clouds.12 mph67%30.15 "HgN/A
11:50 AM54 °FPassing clouds.9 mph72%30.18 "HgN/A
11:20 AM54 °FPassing clouds.9 mph72%30.18 "HgN/A
10:50 AM52 °FPartly sunny.7 mph77%30.18 "HgN/A
10:20 AM52 °FPartly sunny.9 mph77%30.18 "HgN/A
9:50 AM52 °FPartly sunny.10 mph82%30.15 "HgN/A
9:20 AM52 °FPartly sunny.7 mph82%30.15 "HgN/A
8:50 AM52 °FDrizzle. Broken clouds.10 mph82%30.15 "HgN/A
8:20 AM52 °FBroken clouds.10 mph82%30.15 "HgN/A
7:50 AM52 °FBroken clouds.10 mph82%30.15 "HgN/A
7:20 AM52 °FPartly cloudy.14 mph82%30.12 "HgN/A
Weather by CustomWeather, © 2015

See weather overviewHow to use our weather pages